{"data":{"norad_id":69074,"intl_designator":"2026-104B","name":"QIANFAN-128","alt_names":[],"object_type":"PAYLOAD","status":"ACTIVE","operator":null,"country":"PRC","launch_date":"2026-05-12","launch_site_code":"TAISC","launch_vehicle":null,"mission":null,"orbit_class":"UNKNOWN","rcs_meters":null,"size_class":null,"mass_kg":null,"dimensions":null,"purposes":[],"wikipedia_slug":null,"has_3d_model":false,"image_url":null,"decayed_at":null,"tle_current":{"epoch":"2026-09-20T04:05:02.903136Z","epoch_age_seconds":51806,"freshness":"FRESH","line1":"1 69074U 26104B   26263.17017249  .00000054  00000+0  65318-4 0  9994","line2":"2 69074  88.9900 331.8116 0002269 112.6582 247.4809 13.51023704 17962","mean_motion":13.51023704,"eccentricity":0.0002269,"inclination_deg":88.99,"raan_deg":331.8116,"arg_perigee_deg":112.6582,"mean_anomaly_deg":247.4809,"bstar":6.5318e-5,"rev_number":1796,"period_min":106.5858427011,"perigee_km":1066.8048414597,"apogee_km":1070.1841228263,"semimajor_km":7446.631482143,"source":"CELESTRAK","updated_at":"2026-09-20T09:00:24.641867Z"}}}